Wetterdaten: Sonntag, 24.01.2016
Datum Zeit Temp. A. Feuchte A. Luftdruck Regen Wind Richtung Richtung Sonnenschein ET UV Solar Taupunkt Windchill Windben Empfang
24.01.2016 00:05 2,8 C 93 % 1037,5 hPa 0,0 l/m 8,9 km/h (2 Bft) S 182 0 min 0,000 mm 0,0 UV-I 0 W/m 1,8 C 0,5 C 14,5 km/h (3 Bft) 97,25 %
24.01.2016 00:10 2,8 C 93 % 1037,5 hPa 0,2 l/m 8,3 km/h (2 Bft) W-SW 253 0 min 0,000 mm 0,0 UV-I 0 W/m 1,8 C 1,0 C 14,5 km/h (3 Bft) 98,00 %
24.01.2016 00:15 2,8 C 93 % 1037,4 hPa 0,0 l/m 8,3 km/h (2 Bft) SW 223 0 min 0,000 mm 0,0 UV-I 0 W/m 1,8 C 1,0 C 12,9 km/h (3 Bft) 97,87 %
24.01.2016 00:20 2,7 C 93 % 1037,3 hPa 0,2 l/m 9,2 km/h (2 Bft) SW 231 0 min 0,000 mm 0,0 UV-I 0 W/m 1,7 C 0,2 C 17,7 km/h (3 Bft) 99,08 %
24.01.2016 00:25 2,7 C 94 % 1037,3 hPa 0,0 l/m 9,3 km/h (2 Bft) SW 223 0 min 0,000 mm 0,0 UV-I 0 W/m 1,8 C 0,1 C 17,7 km/h (3 Bft) 99,15 %
24.01.2016 00:30 2,6 C 94 % 1037,3 hPa 0,0 l/m 10,4 km/h (2 Bft) SW 227 0 min 0,000 mm 0,0 UV-I 0 W/m 1,7 C -0,9 C 17,7 km/h (3 Bft) 100,00 %
24.01.2016 00:35 2,6 C 94 % 1037,3 hPa 0,0 l/m 12,5 km/h (3 Bft) SW 235 0 min 0,000 mm 0,0 UV-I 0 W/m 1,7 C -2,3 C 20,9 km/h (4 Bft) 98,31 %
24.01.2016 00:40 2,5 C 94 % 1037,3 hPa 0,2 l/m 11,2 km/h (2 Bft) SW 223 0 min 0,000 mm 0,0 UV-I 0 W/m 1,6 C -1,6 C 17,7 km/h (3 Bft) 99,08 %
24.01.2016 00:45 2,5 C 94 % 1037,4 hPa 0,0 l/m 11,1 km/h (2 Bft) S-SW 213 0 min 0,000 mm 0,0 UV-I 0 W/m 1,6 C -1,5 C 16,1 km/h (3 Bft) 100,00 %
24.01.2016 00:50 2,4 C 94 % 1037,3 hPa 0,0 l/m 10,1 km/h (2 Bft) SW 226 0 min 0,000 mm 0,0 UV-I 0 W/m 1,5 C -0,9 C 16,1 km/h (3 Bft) 99,17 %
24.01.2016 00:55 2,4 C 94 % 1037,4 hPa 0,0 l/m 10,9 km/h (2 Bft) SW 230 0 min 0,000 mm 0,0 UV-I 0 W/m 1,5 C -1,5 C 16,1 km/h (3 Bft) 99,17 %
24.01.2016 01:00 2,4 C 95 % 1037,3 hPa 0,2 l/m 10,0 km/h (2 Bft) SW 231 0 min 0,000 mm 0,0 UV-I 0 W/m 1,7 C -0,8 C 14,5 km/h (3 Bft) 99,06 %
24.01.2016 01:05 2,4 C 95 % 1037,3 hPa 0,0 l/m 9,5 km/h (2 Bft) W-SW 242 0 min 0,000 mm 0,0 UV-I 0 W/m 1,7 C -0,4 C 14,5 km/h (3 Bft) 99,19 %
24.01.2016 01:10 2,4 C 95 % 1037,2 hPa 0,0 l/m 9,4 km/h (2 Bft) W-SW 249 0 min 0,000 mm 0,0 UV-I 0 W/m 1,7 C -0,3 C 16,1 km/h (3 Bft) 100,00 %
24.01.2016 01:15 2,4 C 95 % 1037,2 hPa 0,0 l/m 9,5 km/h (2 Bft) SW 235 0 min 0,000 mm 0,0 UV-I 0 W/m 1,7 C -0,4 C 14,5 km/h (3 Bft) 100,00 %
24.01.2016 01:20 2,4 C 94 % 1037,1 hPa 0,0 l/m 8,4 km/h (2 Bft) SW 226 0 min 0,000 mm 0,0 UV-I 0 W/m 1,5 C 0,5 C 14,5 km/h (3 Bft) 100,00 %
24.01.2016 01:25 2,4 C 95 % 1037,0 hPa 0,0 l/m 8,8 km/h (2 Bft) SW 232 0 min 0,000 mm 0,0 UV-I 0 W/m 1,7 C 0,2 C 14,5 km/h (3 Bft) 98,25 %
24.01.2016 01:30 2,4 C 94 % 1037,0 hPa 0,2 l/m 8,3 km/h (2 Bft) W-SW 254 0 min 0,000 mm 0,0 UV-I 0 W/m 1,5 C 0,6 C 16,1 km/h (3 Bft) 100,00 %
24.01.2016 01:35 2,4 C 94 % 1036,9 hPa 0,0 l/m 9,1 km/h (2 Bft) SW 229 0 min 0,000 mm 0,0 UV-I 0 W/m 1,5 C -0,1 C 16,1 km/h (3 Bft) 100,00 %
24.01.2016 01:40 2,6 C 95 % 1037,0 hPa 0,0 l/m 8,6 km/h (2 Bft) SW 232 0 min 0,000 mm 0,0 UV-I 0 W/m 1,9 C 0,6 C 16,1 km/h (3 Bft) 100,00 %
24.01.2016 01:45 2,6 C 94 % 1037,1 hPa 0,0 l/m 7,3 km/h (2 Bft) W 263 0 min 0,000 mm 0,0 UV-I 0 W/m 1,7 C 1,7 C 12,9 km/h (3 Bft) 99,15 %
24.01.2016 01:50 2,6 C 94 % 1037,1 hPa 0,0 l/m 7,9 km/h (2 Bft) W-SW 247 0 min 0,000 mm 0,0 UV-I 0 W/m 1,7 C 1,2 C 12,9 km/h (3 Bft) 94,78 %
24.01.2016 01:55 2,6 C 94 % 1037,0 hPa 0,2 l/m 9,1 km/h (2 Bft) SW 215 0 min 0,000 mm 0,0 UV-I 0 W/m 1,7 C 0,1 C 16,1 km/h (3 Bft) 98,31 %
24.01.2016 02:00 2,6 C 94 % 1037,1 hPa 0,0 l/m 12,2 km/h (2 Bft) W 273 0 min 0,000 mm 0,0 UV-I 0 W/m 1,7 C -2,1 C 17,7 km/h (3 Bft) 96,67 %
24.01.2016 02:05 2,7 C 94 % 1037,1 hPa 0,0 l/m 11,8 km/h (2 Bft) W-SW 244 0 min 0,000 mm 0,0 UV-I 0 W/m 1,8 C -1,8 C 17,7 km/h (3 Bft) 96,52 %
24.01.2016 02:10 2,7 C 94 % 1037,1 hPa 0,0 l/m 11,0 km/h (2 Bft) W-SW 239 0 min 0,000 mm 0,0 UV-I 0 W/m 1,8 C -1,2 C 17,7 km/h (3 Bft) 97,32 %
24.01.2016 02:15 2,7 C 94 % 1037,1 hPa 0,0 l/m 7,8 km/h (2 Bft) SW 230 0 min 0,000 mm 0,0 UV-I 0 W/m 1,8 C 1,4 C 12,9 km/h (3 Bft) 97,56 %
24.01.2016 02:20 2,6 C 94 % 1037,0 hPa 0,0 l/m 6,2 km/h (2 Bft) W 266 0 min 0,000 mm 0,0 UV-I 0 W/m 1,7 C 2,6 C 14,5 km/h (3 Bft) 98,31 %
24.01.2016 02:25 2,5 C 94 % 1037,0 hPa 0,0 l/m 6,7 km/h (2 Bft) W 262 0 min 0,000 mm 0,0 UV-I 0 W/m 1,6 C 2,2 C 12,9 km/h (3 Bft) 100,00 %
24.01.2016 02:30 2,6 C 94 % 1037,1 hPa 0,0 l/m 6,3 km/h (2 Bft) W-SW 246 0 min 0,000 mm 0,0 UV-I 0 W/m 1,7 C 2,6 C 14,5 km/h (3 Bft) 99,10 %
24.01.2016 02:35 2,5 C 94 % 1037,0 hPa 0,0 l/m 5,4 km/h (1 Bft) SW 219 0 min 0,000 mm 0,0 UV-I 0 W/m 1,6 C 2,5 C 8,0 km/h (2 Bft) 98,39 %
24.01.2016 02:40 2,5 C 94 % 1037,1 hPa 0,0 l/m 7,7 km/h (2 Bft) S-SW 211 0 min 0,000 mm 0,0 UV-I 0 W/m 1,6 C 1,3 C 12,9 km/h (3 Bft) 100,00 %
24.01.2016 02:45 2,5 C 94 % 1037,0 hPa 0,2 l/m 7,2 km/h (2 Bft) SW 229 0 min 0,000 mm 0,0 UV-I 0 W/m 1,6 C 1,7 C 12,9 km/h (3 Bft) 99,10 %
24.01.2016 02:50 2,6 C 94 % 1036,9 hPa 0,0 l/m 6,7 km/h (2 Bft) SW 222 0 min 0,000 mm 0,0 UV-I 0 W/m 1,7 C 2,3 C 11,3 km/h (2 Bft) 99,17 %
24.01.2016 02:55 2,6 C 94 % 1037,0 hPa 0,0 l/m 5,7 km/h (1 Bft) S-SW 203 0 min 0,000 mm 0,0 UV-I 0 W/m 1,7 C 2,6 C 8,0 km/h (2 Bft) 99,17 %
24.01.2016 03:00 2,4 C 94 % 1036,9 hPa 0,0 l/m 6,3 km/h (2 Bft) SW 231 0 min 0,000 mm 0,0 UV-I 0 W/m 1,5 C 2,4 C 9,7 km/h (2 Bft) 98,26 %
24.01.2016 03:05 2,4 C 94 % 1037,0 hPa 0,0 l/m 5,7 km/h (1 Bft) SW 224 0 min 0,000 mm 0,0 UV-I 0 W/m 1,5 C 2,4 C 11,3 km/h (2 Bft) 99,13 %
24.01.2016 03:10 2,4 C 94 % 1036,9 hPa 0,0 l/m 5,8 km/h (2 Bft) SW 218 0 min 0,000 mm 0,0 UV-I 0 W/m 1,5 C 2,4 C 11,3 km/h (2 Bft) 99,19 %
24.01.2016 03:15 2,4 C 94 % 1036,8 hPa 0,0 l/m 6,5 km/h (2 Bft) SW 234 0 min 0,000 mm 0,0 UV-I 0 W/m 1,5 C 2,3 C 9,7 km/h (2 Bft) 99,08 %
24.01.2016 03:20 2,5 C 94 % 1036,8 hPa 0,2 l/m 6,3 km/h (2 Bft) SW 225 0 min 0,000 mm 0,0 UV-I 0 W/m 1,6 C 2,5 C 11,3 km/h (2 Bft) 99,17 %
24.01.2016 03:25 2,6 C 94 % 1036,8 hPa 0,0 l/m 4,9 km/h (1 Bft) SW 232 0 min 0,000 mm 0,0 UV-I 0 W/m 1,7 C 2,6 C 6,4 km/h (2 Bft) 100,00 %
24.01.2016 03:30 2,6 C 93 % 1036,8 hPa 0,0 l/m 5,6 km/h (1 Bft) SW 222 0 min 0,000 mm 0,0 UV-I 0 W/m 1,6 C 2,6 C 9,7 km/h (2 Bft) 100,00 %
24.01.2016 03:35 2,6 C 93 % 1036,8 hPa 0,0 l/m 5,4 km/h (1 Bft) S-SW 209 0 min 0,000 mm 0,0 UV-I 0 W/m 1,6 C 2,6 C 8,0 km/h (2 Bft) 99,12 %
24.01.2016 03:40 2,6 C 93 % 1036,8 hPa 0,0 l/m 7,0 km/h (2 Bft) SW 227 0 min 0,000 mm 0,0 UV-I 0 W/m 1,6 C 2,0 C 11,3 km/h (2 Bft) 99,15 %
24.01.2016 03:45 2,4 C 93 % 1036,9 hPa 0,0 l/m 6,3 km/h (2 Bft) SW 235 0 min 0,000 mm 0,0 UV-I 0 W/m 1,4 C 2,4 C 9,7 km/h (2 Bft) 100,00 %
24.01.2016 03:50 2,3 C 93 % 1036,9 hPa 0,0 l/m 6,0 km/h (2 Bft) W 271 0 min 0,000 mm 0,0 UV-I 0 W/m 1,3 C 2,3 C 9,7 km/h (2 Bft) 100,00 %
24.01.2016 03:55 2,4 C 94 % 1036,8 hPa 0,0 l/m 6,3 km/h (2 Bft) W-SW 244 0 min 0,000 mm 0,0 UV-I 0 W/m 1,5 C 2,4 C 11,3 km/h (2 Bft) 99,08 %
24.01.2016 04:00 2,4 C 94 % 1036,9 hPa 0,0 l/m 6,5 km/h (2 Bft) W-SW 255 0 min 0,000 mm 0,0 UV-I 0 W/m 1,5 C 2,3 C 11,3 km/h (2 Bft) 95,93 %
24.01.2016 04:05 2,4 C 93 % 1036,9 hPa 0,0 l/m 4,9 km/h (1 Bft) W-SW 250 0 min 0,000 mm 0,0 UV-I 0 W/m 1,4 C 2,4 C 6,4 km/h (2 Bft) 97,20 %
24.01.2016 04:10 2,5 C 94 % 1036,9 hPa 0,0 l/m 5,5 km/h (1 Bft) W-SW 249 0 min 0,000 mm 0,0 UV-I 0 W/m 1,6 C 2,5 C 11,3 km/h (2 Bft) 96,43 %
24.01.2016 04:15 2,6 C 93 % 1036,9 hPa 0,0 l/m 6,2 km/h (2 Bft) W 265 0 min 0,000 mm 0,0 UV-I 0 W/m 1,6 C 2,6 C 11,3 km/h (2 Bft) 95,93 %
24.01.2016 04:20 2,5 C 93 % 1036,9 hPa 0,0 l/m 3,2 km/h (1 Bft) W 269 0 min 0,000 mm 0,0 UV-I 0 W/m 1,5 C 2,5 C 4,8 km/h (1 Bft) 97,32 %
24.01.2016 04:25 2,3 C 94 % 1037,0 hPa 0,0 l/m 0,7 km/h (0 Bft) W 269 0 min 0,000 mm 0,0 UV-I 0 W/m 1,4 C 2,3 C 3,2 km/h (1 Bft) 97,39 %
24.01.2016 04:30 2,2 C 94 % 1037,0 hPa 0,0 l/m 1,0 km/h (0 Bft) W 269 0 min 0,000 mm 0,0 UV-I 0 W/m 1,3 C 2,2 C 1,6 km/h (1 Bft) 98,37 %
24.01.2016 04:35 2,2 C 94 % 1036,9 hPa 0,2 l/m 1,2 km/h (1 Bft) W 269 0 min 0,000 mm 0,0 UV-I 0 W/m 1,3 C 2,2 C 3,2 km/h (1 Bft) 98,17 %
24.01.2016 04:40 2,1 C 94 % 1036,9 hPa 0,0 l/m 1,1 km/h (1 Bft) W 269 0 min 0,000 mm 0,0 UV-I 0 W/m 1,2 C 2,1 C 4,8 km/h (1 Bft) 98,31 %
24.01.2016 04:45 2,0 C 94 % 1036,7 hPa 0,0 l/m 3,1 km/h (1 Bft) W 265 0 min 0,000 mm 0,0 UV-I 0 W/m 1,1 C 2,0 C 4,8 km/h (1 Bft) 99,17 %
24.01.2016 04:50 2,0 C 94 % 1036,6 hPa 0,0 l/m 2,0 km/h (1 Bft) W 265 0 min 0,000 mm 0,0 UV-I 0 W/m 1,1 C 2,0 C 4,8 km/h (1 Bft) 100,00 %
24.01.2016 04:55 1,8 C 94 % 1036,6 hPa 0,0 l/m 2,6 km/h (1 Bft) SW 228 0 min 0,000 mm 0,0 UV-I 0 W/m 0,9 C 1,8 C 4,8 km/h (1 Bft) 98,41 %
24.01.2016 05:00 1,7 C 95 % 1036,6 hPa 0,0 l/m 1,1 km/h (1 Bft) SW 228 0 min 0,000 mm 0,0 UV-I 0 W/m 1,0 C 1,7 C 3,2 km/h (1 Bft) 99,15 %
24.01.2016 05:05 1,6 C 95 % 1036,6 hPa 0,0 l/m 1,3 km/h (1 Bft) SW 227 0 min 0,000 mm 0,0 UV-I 0 W/m 0,9 C 1,6 C 4,8 km/h (1 Bft) 97,32 %
24.01.2016 05:10 1,6 C 95 % 1036,6 hPa 0,0 l/m 2,9 km/h (1 Bft) S-SW 211 0 min 0,000 mm 0,0 UV-I 0 W/m 0,9 C 1,6 C 4,8 km/h (1 Bft) 100,00 %
24.01.2016 05:15 1,6 C 95 % 1036,5 hPa 0,0 l/m 4,4 km/h (1 Bft) S-SW 209 0 min 0,000 mm 0,0 UV-I 0 W/m 0,9 C 1,6 C 6,4 km/h (2 Bft) 99,17 %
24.01.2016 05:20 1,6 C 95 % 1036,5 hPa 0,0 l/m 4,3 km/h (1 Bft) S-SW 213 0 min 0,000 mm 0,0 UV-I 0 W/m 0,9 C 1,6 C 6,4 km/h (2 Bft) 100,00 %
24.01.2016 05:25 1,6 C 95 % 1036,5 hPa 0,0 l/m 3,7 km/h (1 Bft) S-SW 205 0 min 0,000 mm 0,0 UV-I 0 W/m 0,9 C 1,6 C 8,0 km/h (2 Bft) 99,17 %
24.01.2016 05:30 1,5 C 95 % 1036,5 hPa 0,0 l/m 2,7 km/h (1 Bft) S-SW 198 0 min 0,000 mm 0,0 UV-I 0 W/m 0,8 C 1,5 C 4,8 km/h (1 Bft) 100,00 %
24.01.2016 05:35 1,5 C 95 % 1036,5 hPa 0,0 l/m 2,2 km/h (1 Bft) S 180 0 min 0,000 mm 0,0 UV-I 0 W/m 0,8 C 1,5 C 4,8 km/h (1 Bft) 100,00 %
24.01.2016 05:40 1,3 C 95 % 1036,5 hPa 0,0 l/m 1,7 km/h (1 Bft) S 177 0 min 0,000 mm 0,0 UV-I 0 W/m 0,6 C 1,3 C 3,2 km/h (1 Bft) 100,00 %
24.01.2016 05:45 1,2 C 96 % 1036,5 hPa 0,0 l/m 2,4 km/h (1 Bft) S 175 0 min 0,000 mm 0,0 UV-I 0 W/m 0,6 C 1,2 C 4,8 km/h (1 Bft) 100,00 %
24.01.2016 05:50 1,3 C 96 % 1036,5 hPa 0,0 l/m 2,8 km/h (1 Bft) S 176 0 min 0,000 mm 0,0 UV-I 0 W/m 0,7 C 1,3 C 4,8 km/h (1 Bft) 98,29 %
24.01.2016 05:55 1,5 C 96 % 1036,4 hPa 0,0 l/m 4,0 km/h (1 Bft) S 178 0 min 0,000 mm 0,0 UV-I 0 W/m 0,9 C 1,5 C 6,4 km/h (2 Bft) 99,17 %
24.01.2016 06:00 1,6 C 96 % 1036,4 hPa 0,0 l/m 4,1 km/h (1 Bft) S 179 0 min 0,000 mm 0,0 UV-I 0 W/m 1,0 C 1,6 C 6,4 km/h (2 Bft) 99,15 %
24.01.2016 06:05 1,7 C 95 % 1036,4 hPa 0,0 l/m 5,2 km/h (1 Bft) S 182 0 min 0,000 mm 0,0 UV-I 0 W/m 1,0 C 1,7 C 8,0 km/h (2 Bft) 97,37 %
24.01.2016 06:10 1,7 C 95 % 1036,4 hPa 0,0 l/m 5,8 km/h (2 Bft) S-SW 195 0 min 0,000 mm 0,0 UV-I 0 W/m 1,0 C 1,7 C 8,0 km/h (2 Bft) 97,46 %
24.01.2016 06:15 1,6 C 95 % 1036,4 hPa 0,0 l/m 5,5 km/h (1 Bft) S 182 0 min 0,000 mm 0,0 UV-I 0 W/m 0,9 C 1,6 C 8,0 km/h (2 Bft) 97,17 %
24.01.2016 06:20 1,6 C 95 % 1036,4 hPa 0,0 l/m 4,5 km/h (1 Bft) S 171 0 min 0,000 mm 0,0 UV-I 0 W/m 0,9 C 1,6 C 8,0 km/h (2 Bft) 96,92 %
24.01.2016 06:25 1,6 C 95 % 1036,4 hPa 0,0 l/m 5,4 km/h (1 Bft) S 178 0 min 0,000 mm 0,0 UV-I 0 W/m 0,9 C 1,6 C 9,7 km/h (2 Bft) 96,33 %
24.01.2016 06:30 1,6 C 94 % 1036,4 hPa 0,0 l/m 4,9 km/h (1 Bft) SW 225 0 min 0,000 mm 0,0 UV-I 0 W/m 0,7 C 1,6 C 8,0 km/h (2 Bft) 97,56 %
24.01.2016 06:35 1,7 C 95 % 1036,5 hPa 0,0 l/m 5,2 km/h (1 Bft) S-SW 202 0 min 0,000 mm 0,0 UV-I 0 W/m 1,0 C 1,7 C 8,0 km/h (2 Bft) 96,43 %
24.01.2016 06:40 1,6 C 94 % 1036,4 hPa 0,0 l/m 5,4 km/h (1 Bft) S-SW 194 0 min 0,000 mm 0,0 UV-I 0 W/m 0,7 C 1,6 C 8,0 km/h (2 Bft) 98,31 %
24.01.2016 06:45 1,6 C 94 % 1036,3 hPa 0,0 l/m 5,3 km/h (1 Bft) S-SW 209 0 min 0,000 mm 0,0 UV-I 0 W/m 0,7 C 1,6 C 8,0 km/h (2 Bft) 100,00 %
24.01.2016 06:50 1,6 C 95 % 1036,3 hPa 0,0 l/m 5,0 km/h (1 Bft) S-SW 206 0 min 0,000 mm 0,0 UV-I 0 W/m 0,9 C 1,6 C 8,0 km/h (2 Bft) 99,13 %
24.01.2016 06:55 1,7 C 94 % 1036,3 hPa 0,0 l/m 4,7 km/h (1 Bft) S-SW 212 0 min 0,000 mm 0,0 UV-I 0 W/m 0,8 C 1,7 C 6,4 km/h (2 Bft) 100,00 %
24.01.2016 07:00 1,7 C 94 % 1036,2 hPa 0,0 l/m 6,2 km/h (2 Bft) S-SW 196 0 min 0,000 mm 0,0 UV-I 0 W/m 0,8 C 1,7 C 9,7 km/h (2 Bft) 100,00 %
24.01.2016 07:05 1,7 C 94 % 1036,2 hPa 0,0 l/m 5,8 km/h (2 Bft) SW 217 0 min 0,000 mm 0,0 UV-I 0 W/m 0,8 C 1,7 C 12,9 km/h (3 Bft) 100,00 %
24.01.2016 07:10 1,8 C 94 % 1036,1 hPa 0,0 l/m 7,5 km/h (2 Bft) SW 234 0 min 0,000 mm 0,0 UV-I 0 W/m 0,9 C 0,7 C 12,9 km/h (3 Bft) 98,25 %
24.01.2016 07:15 1,8 C 94 % 1036,1 hPa 0,0 l/m 6,9 km/h (2 Bft) SW 230 0 min 0,000 mm 0,0 UV-I 0 W/m 0,9 C 1,3 C 12,9 km/h (3 Bft) 100,00 %
24.01.2016 07:20 1,8 C 94 % 1036,1 hPa 0,0 l/m 5,7 km/h (1 Bft) S-SW 213 0 min 0,000 mm 0,0 UV-I 0 W/m 0,9 C 1,8 C 9,7 km/h (2 Bft) 100,00 %
24.01.2016 07:25 1,8 C 94 % 1036,0 hPa 0,0 l/m 6,0 km/h (2 Bft) SW 214 0 min 0,000 mm 0,0 UV-I 0 W/m 0,9 C 1,8 C 9,7 km/h (2 Bft) 98,37 %
24.01.2016 07:30 1,7 C 94 % 1036,0 hPa 0,0 l/m 5,2 km/h (1 Bft) S-SW 193 0 min 0,000 mm 0,0 UV-I 0 W/m 0,8 C 1,7 C 8,0 km/h (2 Bft) 99,11 %
24.01.2016 07:35 1,6 C 94 % 1035,9 hPa 0,0 l/m 3,3 km/h (1 Bft) SW 219 0 min 0,000 mm 0,0 UV-I 5 W/m 0,7 C 1,6 C 6,4 km/h (2 Bft) 99,17 %
24.01.2016 07:40 1,4 C 95 % 1035,9 hPa 0,0 l/m 4,3 km/h (1 Bft) S-SW 203 0 min 0,000 mm 0,0 UV-I 9 W/m 0,7 C 1,4 C 6,4 km/h (2 Bft) 98,31 %
24.01.2016 07:45 1,2 C 94 % 1036,0 hPa 0,0 l/m 3,3 km/h (1 Bft) S-SW 202 0 min 0,000 mm 0,0 UV-I 7 W/m 0,3 C 1,2 C 6,4 km/h (2 Bft) 99,17 %
24.01.2016 07:50 1,0 C 95 % 1035,9 hPa 0,0 l/m 4,2 km/h (1 Bft) S-SW 205 0 min 0,000 mm 0,0 UV-I 7 W/m 0,3 C 1,0 C 6,4 km/h (2 Bft) 98,29 %
24.01.2016 07:55 0,9 C 95 % 1035,9 hPa 0,0 l/m 3,4 km/h (1 Bft) S-SW 211 0 min 0,000 mm 0,0 UV-I 10 W/m 0,2 C 0,9 C 4,8 km/h (1 Bft) 99,11 %
24.01.2016 08:00 0,9 C 95 % 1036,0 hPa 0,0 l/m 4,8 km/h (1 Bft) SW 221 0 min 0,000 mm 0,0 UV-I 14 W/m 0,2 C 0,9 C 8,0 km/h (2 Bft) 99,15 %
24.01.2016 08:05 0,9 C 95 % 1036,0 hPa 0,0 l/m 4,2 km/h (1 Bft) SW 226 0 min 0,000 mm 0,0 UV-I 19 W/m 0,2 C 0,9 C 6,4 km/h (2 Bft) 99,17 %
24.01.2016 08:10 0,8 C 95 % 1036,0 hPa 0,0 l/m 4,5 km/h (1 Bft) SW 227 0 min 0,000 mm 0,0 UV-I 22 W/m 0,1 C 0,8 C 6,4 km/h (2 Bft) 98,17 %
24.01.2016 08:15 0,8 C 95 % 1035,9 hPa 0,0 l/m 4,3 km/h (1 Bft) SW 218 0 min 0,000 mm 0,0 UV-I 29 W/m 0,1 C 0,8 C 6,4 km/h (2 Bft) 97,50 %
24.01.2016 08:20 0,7 C 95 % 1036,0 hPa 0,0 l/m 4,1 km/h (1 Bft) SW 217 0 min 0,000 mm 0,0 UV-I 38 W/m -0,0 C 0,7 C 4,8 km/h (1 Bft) 95,92 %
24.01.2016 08:25 0,7 C 96 % 1036,0 hPa 0,0 l/m 3,9 km/h (1 Bft) SW 217 0 min 0,000 mm 0,0 UV-I 34 W/m 0,1 C 0,7 C 6,4 km/h (2 Bft) 97,16 %
24.01.2016 08:30 0,6 C 96 % 1035,9 hPa 0,0 l/m 4,2 km/h (1 Bft) SW 230 0 min 0,000 mm 0,0 UV-I 28 W/m 0,0 C 0,6 C 6,4 km/h (2 Bft) 97,44 %
24.01.2016 08:35 0,6 C 96 % 1036,0 hPa 0,0 l/m 4,2 km/h (1 Bft) SW 226 0 min 0,000 mm 0,0 UV-I 29 W/m 0,0 C 0,6 C 6,4 km/h (2 Bft) 95,76 %
24.01.2016 08:40 0,4 C 96 % 1036,0 hPa 0,0 l/m 4,1 km/h (1 Bft) S-SW 211 0 min 0,000 mm 0,0 UV-I 34 W/m -0,2 C 0,4 C 6,4 km/h (2 Bft) 97,32 %
24.01.2016 08:45 0,4 C 96 % 1036,0 hPa 0,0 l/m 4,2 km/h (1 Bft) S-SW 202 0 min 0,000 mm 0,0 UV-I 46 W/m -0,2 C 0,4 C 8,0 km/h (2 Bft) 96,58 %
24.01.2016 08:50 0,5 C 96 % 1036,0 hPa 0,0 l/m 3,8 km/h (1 Bft) SW 222 0 min 0,000 mm 0,0 UV-I 54 W/m -0,1 C 0,5 C 6,4 km/h (2 Bft) 100,00 %
24.01.2016 08:55 0,5 C 96 % 1036,0 hPa 0,0 l/m 3,9 km/h (1 Bft) SW 221 0 min 0,000 mm 0,0 UV-I 54 W/m -0,1 C 0,5 C 6,4 km/h (2 Bft) 98,29 %
24.01.2016 09:00 0,4 C 96 % 1036,0 hPa 0,0 l/m 4,1 km/h (1 Bft) SW 220 0 min 0,025 mm 0,0 UV-I 46 W/m -0,2 C 0,4 C 8,0 km/h (2 Bft) 98,94 %
24.01.2016 09:05 0,4 C 96 % 1036,0 hPa 0,0 l/m 3,5 km/h (1 Bft) SW 229 0 min 0,000 mm 0,0 UV-I 41 W/m -0,2 C 0,4 C 6,4 km/h (2 Bft) 100,00 %
24.01.2016 09:10 0,2 C 96 % 1036,0 hPa 0,0 l/m 3,3 km/h (1 Bft) S-SW 210 0 min 0,000 mm 0,0 UV-I 36 W/m -0,4 C 0,2 C 4,8 km/h (1 Bft) 100,00 %
24.01.2016 09:15 0,2 C 96 % 1036,0 hPa 0,0 l/m 2,2 km/h (1 Bft) S-SW 210 0 min 0,000 mm 0,0 UV-I 51 W/m -0,4 C 0,2 C 4,8 km/h (1 Bft) 99,11 %
24.01.2016 09:20 -0,1 C 96 % 1035,8 hPa 0,0 l/m 0,9 km/h (0 Bft) S-SW 210 0 min 0,000 mm 0,0 UV-I 87 W/m -0,7 C -0,1 C 3,2 km/h (1 Bft) 100,00 %
24.01.2016 09:25 0,3 C 97 % 1035,8 hPa 0,0 l/m 0,7 km/h (0 Bft) S-SW 210 0 min 0,000 mm 0,0 UV-I 117 W/m -0,1 C 0,3 C 3,2 km/h (1 Bft) 100,00 %
24.01.2016 09:30 0,4 C 96 % 1035,7 hPa 0,0 l/m 4,7 km/h (1 Bft) S-SW 200 0 min 0,000 mm 0,0 UV-I 124 W/m -0,2 C 0,4 C 8,0 km/h (2 Bft) 99,23 %
24.01.2016 09:35 0,9 C 96 % 1035,6 hPa 0,0 l/m 5,4 km/h (1 Bft) S-SW 196 5 min 0,000 mm 0,0 UV-I 202 W/m 0,3 C 0,9 C 8,0 km/h (2 Bft) 100,00 %
24.01.2016 09:40 1,4 C 96 % 1035,6 hPa 0,0 l/m 4,2 km/h (1 Bft) S 174 5 min 0,000 mm 0,0 UV-I 248 W/m 0,8 C 1,4 C 9,7 km/h (2 Bft) 99,19 %
24.01.2016 09:45 1,7 C 95 % 1035,6 hPa 0,0 l/m 3,8 km/h (1 Bft) SW 234 5 min 0,000 mm 0,0 UV-I 295 W/m 1,0 C 1,7 C 8,0 km/h (2 Bft) 100,00 %
24.01.2016 09:50 1,9 C 94 % 1035,6 hPa 0,0 l/m 2,8 km/h (1 Bft) SW 235 5 min 0,000 mm 0,0 UV-I 262 W/m 1,0 C 1,9 C 4,8 km/h (1 Bft) 100,00 %
24.01.2016 09:55 2,2 C 93 % 1035,7 hPa 0,0 l/m 3,9 km/h (1 Bft) W-SW 250 5 min 0,000 mm 0,0 UV-I 172 W/m 1,2 C 2,2 C 8,0 km/h (2 Bft) 99,15 %
24.01.2016 10:00 2,3 C 93 % 1035,8 hPa 0,2 l/m 1,8 km/h (1 Bft) SW 227 5 min 0,051 mm 0,0 UV-I 159 W/m 1,3 C 2,3 C 6,4 km/h (2 Bft) 99,13 %
24.01.2016 10:05 2,4 C 92 % 1035,7 hPa 0,0 l/m 2,2 km/h (1 Bft) SW 234 0 min 0,000 mm 0,0 UV-I 154 W/m 1,2 C 2,4 C 4,8 km/h (1 Bft) 97,50 %
24.01.2016 10:10 2,6 C 92 % 1035,6 hPa 0,0 l/m 4,3 km/h (1 Bft) W 263 5 min 0,000 mm 0,2 UV-I 167 W/m 1,4 C 2,6 C 9,7 km/h (2 Bft) 94,78 %
24.01.2016 10:15 2,8 C 91 % 1035,6 hPa 0,0 l/m 3,6 km/h (1 Bft) W 267 0 min 0,000 mm 0,5 UV-I 166 W/m 1,5 C 2,8 C 6,4 km/h (2 Bft) 97,39 %
24.01.2016 10:20 2,8 C 91 % 1035,7 hPa 0,0 l/m 1,6 km/h (1 Bft) W 267 5 min 0,000 mm 0,5 UV-I 181 W/m 1,5 C 2,8 C 4,8 km/h (1 Bft) 97,56 %
24.01.2016 10:25 2,9 C 90 % 1035,7 hPa 0,0 l/m 0,9 km/h (0 Bft) W 267 5 min 0,000 mm 0,5 UV-I 207 W/m 1,4 C 2,9 C 4,8 km/h (1 Bft) 96,52 %
24.01.2016 10:30 2,9 C 90 % 1035,7 hPa 0,0 l/m 0,5 km/h (0 Bft) W 267 5 min 0,000 mm 0,6 UV-I 214 W/m 1,4 C 2,9 C 3,2 km/h (1 Bft) 96,52 %
24.01.2016 10:35 3,1 C 90 % 1035,6 hPa 0,0 l/m 0,8 km/h (0 Bft) W 267 5 min 0,000 mm 0,6 UV-I 204 W/m 1,6 C 3,1 C 3,2 km/h (1 Bft) 97,30 %
24.01.2016 10:40 3,1 C 90 % 1035,6 hPa 0,0 l/m 0,8 km/h (0 Bft) W 268 5 min 0,000 mm 0,5 UV-I 203 W/m 1,6 C 3,1 C 3,2 km/h (1 Bft) 99,21 %
24.01.2016 10:45 3,1 C 89 % 1035,6 hPa 0,2 l/m 1,4 km/h (1 Bft) W-NW 293 5 min 0,000 mm 0,5 UV-I 203 W/m 1,5 C 3,1 C 3,2 km/h (1 Bft) 99,10 %
24.01.2016 10:50 3,1 C 90 % 1035,6 hPa 0,0 l/m 0,4 km/h (0 Bft) W-NW 299 0 min 0,000 mm 0,5 UV-I 186 W/m 1,6 C 3,1 C 3,2 km/h (1 Bft) 98,35 %
24.01.2016 10:55 3,0 C 90 % 1035,6 hPa 0,0 l/m 1,6 km/h (1 Bft) W-NW 302 0 min 0,000 mm 0,5 UV-I 160 W/m 1,5 C 3,0 C 3,2 km/h (1 Bft) 100,00 %
24.01.2016 11:00 2,9 C 90 % 1035,6 hPa 0,0 l/m 0,8 km/h (0 Bft) NW 325 0 min 0,076 mm 0,2 UV-I 137 W/m 1,4 C 2,9 C 3,2 km/h (1 Bft) 98,20 %
24.01.2016 11:05 2,7 C 90 % 1035,7 hPa 0,0 l/m 0,4 km/h (0 Bft) NW 321 0 min 0,000 mm 0,5 UV-I 138 W/m 1,2 C 2,7 C 1,6 km/h (1 Bft) 100,00 %
24.01.2016 11:10 2,8 C 91 % 1035,5 hPa 0,0 l/m 0,6 km/h (0 Bft) NW 325 0 min 0,000 mm 0,5 UV-I 150 W/m 1,5 C 2,8 C 3,2 km/h (1 Bft) 98,33 %
24.01.2016 11:15 2,8 C 90 % 1035,5 hPa 0,0 l/m 0,7 km/h (0 Bft) N 355 0 min 0,000 mm 0,6 UV-I 181 W/m 1,3 C 2,8 C 3,2 km/h (1 Bft) 100,00 %
24.01.2016 11:20 2,7 C 91 % 1035,5 hPa 0,0 l/m 0,8 km/h (0 Bft) N 360 0 min 0,000 mm 0,5 UV-I 186 W/m 1,4 C 2,7 C 3,2 km/h (1 Bft) 99,15 %
24.01.2016 11:25 2,7 C 91 % 1035,4 hPa 0,0 l/m 1,0 km/h (0 Bft) N 11 0 min 0,000 mm 0,5 UV-I 166 W/m 1,4 C 2,7 C 4,8 km/h (1 Bft) 98,26 %
24.01.2016 11:30 2,8 C 91 % 1035,3 hPa 0,0 l/m 0,3 km/h (0 Bft) N 360 0 min 0,000 mm 0,5 UV-I 151 W/m 1,5 C 2,8 C 1,6 km/h (1 Bft) 100,00 %
24.01.2016 11:35 2,8 C 91 % 1035,1 hPa 0,0 l/m 0,4 km/h (0 Bft) N 360 0 min 0,000 mm 0,0 UV-I 136 W/m 1,5 C 2,8 C 3,2 km/h (1 Bft) 98,35 %
24.01.2016 11:40 2,8 C 91 % 1034,9 hPa 0,0 l/m 0,3 km/h (0 Bft) N 360 0 min 0,000 mm 0,0 UV-I 105 W/m 1,5 C 2,8 C 1,6 km/h (1 Bft) 100,00 %
24.01.2016 11:45 2,9 C 91 % 1034,8 hPa 0,0 l/m 0,1 km/h (0 Bft) N 360 0 min 0,000 mm 0,0 UV-I 86 W/m 1,6 C 2,9 C 1,6 km/h (1 Bft) 100,00 %
24.01.2016 11:50 2,8 C 91 % 1034,9 hPa 0,0 l/m 0,0 km/h (0 Bft) N 360 0 min 0,000 mm 0,0 UV-I 79 W/m 1,5 C 2,8 C 1,6 km/h (1 Bft) 98,37 %
24.01.2016 11:55 2,7 C 92 % 1034,9 hPa 0,0 l/m 0,2 km/h (0 Bft) N 360 0 min 0,000 mm 0,0 UV-I 76 W/m 1,5 C 2,7 C 1,6 km/h (1 Bft) 98,31 %
24.01.2016 12:00 2,6 C 92 % 1035,1 hPa 0,0 l/m 0,4 km/h (0 Bft) N-NW 346 0 min 0,051 mm 0,0 UV-I 78 W/m 1,4 C 2,6 C 3,2 km/h (1 Bft) 99,17 %
24.01.2016 12:05 2,5 C 92 % 1035,1 hPa 0,0 l/m 0,5 km/h (0 Bft) N-NW 344 0 min 0,000 mm 0,0 UV-I 75 W/m 1,3 C 2,5 C 3,2 km/h (1 Bft) 94,59 %
24.01.2016 12:10 2,4 C 92 % 1035,2 hPa 0,0 l/m 1,3 km/h (1 Bft) NW 313 0 min 0,000 mm 0,0 UV-I 81 W/m 1,2 C 2,4 C 6,4 km/h (2 Bft) 96,52 %
24.01.2016 12:15 2,6 C 92 % 1035,0 hPa 0,0 l/m 0,6 km/h (0 Bft) NW 313 0 min 0,000 mm 0,0 UV-I 98 W/m 1,4 C 2,6 C 1,6 km/h (1 Bft) 95,16 %
24.01.2016 12:20 2,6 C 93 % 1035,0 hPa 0,0 l/m 0,3 km/h (0 Bft) NW 313 0 min 0,000 mm 0,4 UV-I 134 W/m 1,6 C 2,6 C 1,6 km/h (1 Bft) 95,37 %
24.01.2016 12:25 2,7 C 92 % 1035,0 hPa 0,0 l/m 1,2 km/h (1 Bft) NW 313 0 min 0,000 mm 0,6 UV-I 161 W/m 1,5 C 2,7 C 3,2 km/h (1 Bft) 96,61 %
24.01.2016 12:30 2,6 C 92 % 1035,0 hPa 0,0 l/m 0,1 km/h (0 Bft) NW 315 0 min 0,000 mm 0,5 UV-I 154 W/m 1,4 C 2,6 C 1,6 km/h (1 Bft) 96,61 %
24.01.2016 12:35 2,7 C 92 % 1035,0 hPa 0,0 l/m 0,4 km/h (0 Bft) NW 315 0 min 0,000 mm 0,5 UV-I 144 W/m 1,5 C 2,7 C 1,6 km/h (1 Bft) 96,49 %
24.01.2016 12:40 2,7 C 92 % 1035,1 hPa 0,0 l/m 0,6 km/h (0 Bft) NW 315 0 min 0,000 mm 0,4 UV-I 136 W/m 1,5 C 2,7 C 3,2 km/h (1 Bft) 96,06 %
24.01.2016 12:45 2,7 C 92 % 1035,1 hPa 0,0 l/m 0,9 km/h (0 Bft) NW 315 0 min 0,000 mm 0,0 UV-I 126 W/m 1,5 C 2,7 C 3,2 km/h (1 Bft) 98,25 %
24.01.2016 12:50 2,7 C 92 % 1035,1 hPa 0,0 l/m 1,4 km/h (1 Bft) NW 311 0 min 0,000 mm 0,3 UV-I 133 W/m 1,5 C 2,7 C 4,8 km/h (1 Bft) 99,11 %
24.01.2016 12:55 2,7 C 92 % 1035,0 hPa 0,0 l/m 0,6 km/h (0 Bft) NW 311 0 min 0,000 mm 0,5 UV-I 139 W/m 1,5 C 2,7 C 3,2 km/h (1 Bft) 99,19 %
24.01.2016 13:00 2,7 C 92 % 1034,9 hPa 0,0 l/m 1,0 km/h (0 Bft) NW 304 0 min 0,000 mm 0,5 UV-I 140 W/m 1,5 C 2,7 C 3,2 km/h (1 Bft) 99,10 %
24.01.2016 13:05 2,7 C 92 % 1034,8 hPa 0,0 l/m 0,9 km/h (0 Bft) NW 304 0 min 0,051 mm 0,5 UV-I 145 W/m 1,5 C 2,7 C 3,2 km/h (1 Bft) 98,39 %
24.01.2016 13:10 2,8 C 92 % 1034,8 hPa 0,0 l/m 2,6 km/h (1 Bft) W-NW 303 0 min 0,000 mm 0,5 UV-I 139 W/m 1,6 C 2,8 C 4,8 km/h (1 Bft) 99,11 %
24.01.2016 13:15 2,8 C 92 % 1034,5 hPa 0,0 l/m 2,5 km/h (1 Bft) W-NW 303 0 min 0,000 mm 0,5 UV-I 139 W/m 1,6 C 2,8 C 4,8 km/h (1 Bft) 99,19 %
24.01.2016 13:20 2,8 C 92 % 1034,4 hPa 0,0 l/m 2,5 km/h (1 Bft) S 187 0 min 0,000 mm 0,5 UV-I 153 W/m 1,6 C 2,8 C 6,4 km/h (2 Bft) 99,08 %
24.01.2016 13:25 2,8 C 92 % 1034,4 hPa 0,0 l/m 1,8 km/h (1 Bft) S-SO 157 0 min 0,000 mm 0,5 UV-I 148 W/m 1,6 C 2,8 C 4,8 km/h (1 Bft) 98,33 %
24.01.2016 13:30 2,8 C 92 % 1034,2 hPa 0,0 l/m 1,9 km/h (1 Bft) S-SO 162 0 min 0,000 mm 0,3 UV-I 132 W/m 1,6 C 2,8 C 6,4 km/h (2 Bft) 100,00 %
24.01.2016 13:35 2,8 C 92 % 1034,1 hPa 0,0 l/m 2,0 km/h (1 Bft) S 188 0 min 0,000 mm 0,1 UV-I 126 W/m 1,6 C 2,8 C 6,4 km/h (2 Bft) 100,00 %
24.01.2016 13:40 2,9 C 92 % 1034,3 hPa 0,0 l/m 0,2 km/h (0 Bft) S 188 0 min 0,000 mm 0,5 UV-I 145 W/m 1,7 C 2,9 C 1,6 km/h (1 Bft) 99,22 %
24.01.2016 13:45 3,0 C 91 % 1034,3 hPa 0,0 l/m 0,5 km/h (0 Bft) W-SW 238 0 min 0,000 mm 0,5 UV-I 175 W/m 1,7 C 3,0 C 3,2 km/h (1 Bft) 100,00 %
24.01.2016 13:50 3,0 C 91 % 1034,2 hPa 0,0 l/m 0,4 km/h (0 Bft) W-SW 239 5 min 0,000 mm 0,6 UV-I 192 W/m 1,7 C 3,0 C 3,2 km/h (1 Bft) 100,00 %
24.01.2016 13:55 3,1 C 91 % 1034,2 hPa 0,0 l/m 0,3 km/h (0 Bft) W-SW 238 5 min 0,000 mm 0,6 UV-I 213 W/m 1,8 C 3,1 C 1,6 km/h (1 Bft) 99,11 %
24.01.2016 14:00 3,3 C 90 % 1034,2 hPa 0,0 l/m 0,5 km/h (0 Bft) W-SW 239 5 min 0,051 mm 0,6 UV-I 262 W/m 1,8 C 3,3 C 3,2 km/h (1 Bft) 99,17 %
24.01.2016 14:05 3,2 C 90 % 1034,4 hPa 0,0 l/m 0,9 km/h (0 Bft) W-NW 294 5 min 0,000 mm 0,5 UV-I 189 W/m 1,7 C 3,2 C 3,2 km/h (1 Bft) 100,00 %
24.01.2016 14:10 3,2 C 90 % 1034,4 hPa 0,0 l/m 0,5 km/h (0 Bft) W-NW 294 0 min 0,000 mm 0,0 UV-I 153 W/m 1,7 C 3,2 C 3,2 km/h (1 Bft) 99,17 %
24.01.2016 14:15 3,2 C 91 % 1034,4 hPa 0,0 l/m 0,1 km/h (0 Bft) W-NW 294 0 min 0,000 mm 0,0 UV-I 148 W/m 1,9 C 3,2 C 1,6 km/h (1 Bft) 94,87 %
24.01.2016 14:20 3,1 C 91 % 1034,3 hPa 0,0 l/m 0,0 km/h (0 Bft) W-NW 294 0 min 0,000 mm 0,0 UV-I 141 W/m 1,8 C 3,1 C 1,6 km/h (1 Bft) 96,30 %
24.01.2016 14:25 3,1 C 91 % 1034,0 hPa 0,0 l/m 1,5 km/h (1 Bft) N 5 0 min 0,000 mm 0,0 UV-I 132 W/m 1,8 C 3,1 C 4,8 km/h (1 Bft) 96,61 %
24.01.2016 14:30 3,2 C 91 % 1034,2 hPa 0,0 l/m 1,3 km/h (1 Bft) W-NW 292 0 min 0,000 mm 0,0 UV-I 117 W/m 1,9 C 3,2 C 4,8 km/h (1 Bft) 98,37 %
24.01.2016 14:35 3,1 C 91 % 1034,1 hPa 0,0 l/m 1,6 km/h (1 Bft) W-NW 295 0 min 0,000 mm 0,0 UV-I 107 W/m 1,8 C 3,1 C 4,8 km/h (1 Bft) 96,43 %
24.01.2016 14:40 3,1 C 91 % 1033,9 hPa 0,0 l/m 1,5 km/h (1 Bft) SW 215 0 min 0,000 mm 0,0 UV-I 98 W/m 1,8 C 3,1 C 4,8 km/h (1 Bft) 97,52 %
24.01.2016 14:45 3,2 C 91 % 1033,8 hPa 0,0 l/m 3,2 km/h (1 Bft) W-SW 258 0 min 0,000 mm 0,0 UV-I 106 W/m 1,9 C 3,2 C 6,4 km/h (2 Bft) 97,50 %
24.01.2016 14:50 3,2 C 90 % 1033,8 hPa 0,0 l/m 2,6 km/h (1 Bft) W-SW 251 0 min 0,000 mm 0,0 UV-I 105 W/m 1,7 C 3,2 C 6,4 km/h (2 Bft) 96,52 %
24.01.2016 14:55 3,3 C 90 % 1033,8 hPa 0,0 l/m 2,5 km/h (1 Bft) W 273 0 min 0,000 mm 0,0 UV-I 103 W/m 1,8 C 3,3 C 6,4 km/h (2 Bft) 99,11 %
24.01.2016 15:00 3,2 C 90 % 1033,6 hPa 0,0 l/m 3,0 km/h (1 Bft) W 273 0 min 0,051 mm 0,0 UV-I 110 W/m 1,7 C 3,2 C 4,8 km/h (1 Bft) 99,08 %
24.01.2016 15:05 3,1 C 90 % 1033,7 hPa 0,0 l/m 2,8 km/h (1 Bft) S 185 0 min 0,000 mm 0,0 UV-I 94 W/m 1,6 C 3,1 C 6,4 km/h (2 Bft) 100,00 %
24.01.2016 15:10 3,1 C 91 % 1033,4 hPa 0,0 l/m 2,2 km/h (1 Bft) S-SO 167 0 min 0,000 mm 0,0 UV-I 70 W/m 1,8 C 3,1 C 6,4 km/h (2 Bft) 98,45 %
24.01.2016 15:15 3,1 C 91 % 1033,4 hPa 0,0 l/m 3,2 km/h (1 Bft) S-SO 167 0 min 0,000 mm 0,0 UV-I 60 W/m 1,8 C 3,1 C 6,4 km/h (2 Bft) 98,31 %
24.01.2016 15:20 3,1 C 91 % 1033,6 hPa 0,0 l/m 1,7 km/h (1 Bft) S-SO 167 0 min 0,000 mm 0,0 UV-I 73 W/m 1,8 C 3,1 C 4,8 km/h (1 Bft) 100,00 %
24.01.2016 15:25 3,1 C 91 % 1033,7 hPa 0,0 l/m 2,9 km/h (1 Bft) S 169 0 min 0,000 mm 0,0 UV-I 66 W/m 1,8 C 3,1 C 4,8 km/h (1 Bft) 100,00 %
24.01.2016 15:30 3,0 C 91 % 1033,8 hPa 0,0 l/m 1,8 km/h (1 Bft) S 170 0 min 0,000 mm 0,0 UV-I 44 W/m 1,7 C 3,0 C 3,2 km/h (1 Bft) 100,00 %
24.01.2016 15:35 2,9 C 91 % 1033,9 hPa 0,0 l/m 0,7 km/h (0 Bft) S 170 0 min 0,000 mm 0,0 UV-I 38 W/m 1,6 C 2,9 C 3,2 km/h (1 Bft) 99,13 %
24.01.2016 15:40 2,9 C 91 % 1033,8 hPa 0,0 l/m 0,8 km/h (0 Bft) S 170 0 min 0,000 mm 0,0 UV-I 41 W/m 1,6 C 2,9 C 3,2 km/h (1 Bft) 97,37 %
24.01.2016 15:45 2,8 C 91 % 1033,8 hPa 0,0 l/m 0,5 km/h (0 Bft) S 170 0 min 0,000 mm 0,0 UV-I 44 W/m 1,5 C 2,8 C 1,6 km/h (1 Bft) 99,15 %
24.01.2016 15:50 2,8 C 92 % 1033,7 hPa 0,0 l/m 0,4 km/h (0 Bft) S 170 0 min 0,000 mm 0,0 UV-I 42 W/m 1,6 C 2,8 C 1,6 km/h (1 Bft) 100,00 %
24.01.2016 15:55 2,8 C 92 % 1033,5 hPa 0,0 l/m 2,5 km/h (1 Bft) S 170 0 min 0,000 mm 0,0 UV-I 41 W/m 1,6 C 2,8 C 6,4 km/h (2 Bft) 100,00 %
24.01.2016 16:00 2,8 C 92 % 1033,7 hPa 0,0 l/m 2,9 km/h (1 Bft) S-SW 211 0 min 0,025 mm 0,0 UV-I 48 W/m 1,6 C 2,8 C 6,4 km/h (2 Bft) 98,35 %
24.01.2016 16:05 2,8 C 92 % 1033,8 hPa 0,0 l/m 1,4 km/h (1 Bft) W 271 0 min 0,000 mm 0,0 UV-I 53 W/m 1,6 C 2,8 C 4,8 km/h (1 Bft) 99,06 %
24.01.2016 16:10 2,7 C 92 % 1033,9 hPa 0,0 l/m 0,4 km/h (0 Bft) W 271 0 min 0,000 mm 0,0 UV-I 41 W/m 1,5 C 2,7 C 3,2 km/h (1 Bft) 100,00 %
24.01.2016 16:15 2,7 C 92 % 1033,9 hPa 0,0 l/m 0,9 km/h (0 Bft) W 271 0 min 0,000 mm 0,0 UV-I 31 W/m 1,5 C 2,7 C 3,2 km/h (1 Bft) 100,00 %
24.01.2016 16:20 2,6 C 92 % 1033,7 hPa 0,0 l/m 0,1 km/h (0 Bft) W 271 0 min 0,000 mm 0,0 UV-I 26 W/m 1,4 C 2,6 C 1,6 km/h (1 Bft) 97,44 %
24.01.2016 16:25 2,5 C 92 % 1033,3 hPa 0,0 l/m 2,9 km/h (1 Bft) SO 146 0 min 0,000 mm 0,0 UV-I 19 W/m 1,3 C 2,5 C 6,4 km/h (2 Bft) 96,52 %
24.01.2016 16:30 2,4 C 93 % 1033,4 hPa 0,0 l/m 1,1 km/h (1 Bft) SO 145 0 min 0,000 mm 0,0 UV-I 14 W/m 1,4 C 2,4 C 6,4 km/h (2 Bft) 98,35 %
24.01.2016 16:35 2,3 C 93 % 1033,7 hPa 0,0 l/m 1,6 km/h (1 Bft) SO 145 0 min 0,000 mm 0,0 UV-I 11 W/m 1,3 C 2,3 C 3,2 km/h (1 Bft) 96,40 %
24.01.2016 16:40 2,3 C 93 % 1033,8 hPa 0,0 l/m 2,8 km/h (1 Bft) S-SO 167 0 min 0,000 mm 0,0 UV-I 7 W/m 1,3 C 2,3 C 4,8 km/h (1 Bft) 96,85 %
24.01.2016 16:45 2,1 C 93 % 1033,8 hPa 0,0 l/m 4,7 km/h (1 Bft) S 184 0 min 0,000 mm 0,0 UV-I 4 W/m 1,1 C 2,1 C 8,0 km/h (2 Bft) 97,25 %
24.01.2016 16:50 1,9 C 93 % 1033,8 hPa 0,0 l/m 3,7 km/h (1 Bft) S-SW 198 0 min 0,000 mm 0,0 UV-I 0 W/m 0,9 C 1,9 C 6,4 km/h (2 Bft) 97,44 %
24.01.2016 16:55 1,8 C 94 % 1033,9 hPa 0,0 l/m 1,4 km/h (1 Bft) S-SW 197 0 min 0,000 mm 0,0 UV-I 0 W/m 0,9 C 1,8 C 3,2 km/h (1 Bft) 96,69 %
24.01.2016 17:00 1,8 C 94 % 1033,8 hPa 0,0 l/m 1,6 km/h (1 Bft) S 182 0 min 0,000 mm 0,0 UV-I 0 W/m 0,9 C 1,8 C 4,8 km/h (1 Bft) 99,17 %
24.01.2016 17:05 1,9 C 94 % 1033,7 hPa 0,0 l/m 4,0 km/h (1 Bft) S 180 0 min 0,000 mm 0,0 UV-I 0 W/m 1,0 C 1,9 C 8,0 km/h (2 Bft) 99,03 %
24.01.2016 17:10 2,0 C 94 % 1033,7 hPa 0,0 l/m 3,8 km/h (1 Bft) S-SW 194 0 min 0,000 mm 0,0 UV-I 0 W/m 1,1 C 2,0 C 6,4 km/h (2 Bft) 100,00 %
24.01.2016 17:15 2,0 C 94 % 1033,8 hPa 0,0 l/m 4,1 km/h (1 Bft) S 182 0 min 0,000 mm 0,0 UV-I 0 W/m 1,1 C 2,0 C 6,4 km/h (2 Bft) 98,29 %
24.01.2016 17:20 1,9 C 94 % 1033,7 hPa 0,0 l/m 3,8 km/h (1 Bft) S 182 0 min 0,000 mm 0,0 UV-I 0 W/m 1,0 C 1,9 C 4,8 km/h (1 Bft) 100,00 %
24.01.2016 17:25 1,8 C 94 % 1033,5 hPa 0,0 l/m 2,9 km/h (1 Bft) S 172 0 min 0,000 mm 0,0 UV-I 0 W/m 0,9 C 1,8 C 4,8 km/h (1 Bft) 100,00 %
24.01.2016 17:30 1,8 C 94 % 1033,7 hPa 0,0 l/m 3,5 km/h (1 Bft) S-SW 211 0 min 0,000 mm 0,0 UV-I 0 W/m 0,9 C 1,8 C 4,8 km/h (1 Bft) 100,00 %
24.01.2016 17:35 1,8 C 94 % 1033,7 hPa 0,0 l/m 3,0 km/h (1 Bft) S-SW 211 0 min 0,000 mm 0,0 UV-I 0 W/m 0,9 C 1,8 C 4,8 km/h (1 Bft) 98,00 %
24.01.2016 17:40 1,7 C 94 % 1033,7 hPa 0,0 l/m 3,0 km/h (1 Bft) S 186 0 min 0,000 mm 0,0 UV-I 0 W/m 0,8 C 1,7 C 4,8 km/h (1 Bft) 98,48 %
24.01.2016 17:45 1,6 C 95 % 1033,7 hPa 0,0 l/m 3,8 km/h (1 Bft) S 186 0 min 0,000 mm 0,0 UV-I 0 W/m 0,9 C 1,6 C 4,8 km/h (1 Bft) 99,15 %
24.01.2016 17:50 1,7 C 95 % 1033,5 hPa 0,0 l/m 4,7 km/h (1 Bft) S 185 0 min 0,000 mm 0,0 UV-I 0 W/m 1,0 C 1,7 C 6,4 km/h (2 Bft) 100,00 %
24.01.2016 17:55 1,8 C 94 % 1033,4 hPa 0,0 l/m 4,0 km/h (1 Bft) S 181 0 min 0,000 mm 0,0 UV-I 0 W/m 0,9 C 1,8 C 8,0 km/h (2 Bft) 100,00 %
24.01.2016 18:00 1,8 C 94 % 1033,5 hPa 0,0 l/m 3,0 km/h (1 Bft) S-SW 192 0 min 0,000 mm 0,0 UV-I 0 W/m 0,9 C 1,8 C 9,7 km/h (2 Bft) 100,00 %
24.01.2016 18:05 1,7 C 94 % 1033,6 hPa 0,0 l/m 1,2 km/h (1 Bft) S-SW 192 0 min 0,000 mm 0,0 UV-I 0 W/m 0,8 C 1,7 C 3,2 km/h (1 Bft) 100,00 %
24.01.2016 18:10 1,7 C 95 % 1033,8 hPa 0,0 l/m 0,5 km/h (0 Bft) S-SW 192 0 min 0,000 mm 0,0 UV-I 0 W/m 1,0 C 1,7 C 3,2 km/h (1 Bft) 99,13 %
24.01.2016 18:15 1,8 C 95 % 1033,8 hPa 0,0 l/m 1,9 km/h (1 Bft) S-SW 192 0 min 0,000 mm 0,0 UV-I 0 W/m 1,1 C 1,8 C 4,8 km/h (1 Bft) 100,00 %
24.01.2016 18:20 1,7 C 94 % 1033,8 hPa 0,0 l/m 3,7 km/h (1 Bft) S-SW 192 0 min 0,000 mm 0,0 UV-I 0 W/m 0,8 C 1,7 C 4,8 km/h (1 Bft) 98,25 %
24.01.2016 18:25 1,6 C 94 % 1033,8 hPa 0,0 l/m 2,3 km/h (1 Bft) S-SW 192 0 min 0,000 mm 0,0 UV-I 0 W/m 0,7 C 1,6 C 4,8 km/h (1 Bft) 96,69 %
24.01.2016 18:30 1,4 C 94 % 1033,8 hPa 0,0 l/m 1,7 km/h (1 Bft) S-SW 192 0 min 0,000 mm 0,0 UV-I 0 W/m 0,5 C 1,4 C 3,2 km/h (1 Bft) 98,35 %
24.01.2016 18:35 1,3 C 95 % 1033,8 hPa 0,0 l/m 3,3 km/h (1 Bft) S-SW 192 0 min 0,000 mm 0,0 UV-I 0 W/m 0,6 C 1,3 C 4,8 km/h (1 Bft) 95,61 %
24.01.2016 18:40 1,2 C 95 % 1033,9 hPa 0,0 l/m 3,3 km/h (1 Bft) S-SW 208 0 min 0,000 mm 0,0 UV-I 0 W/m 0,5 C 1,2 C 4,8 km/h (1 Bft) 97,32 %
24.01.2016 18:45 1,1 C 95 % 1033,8 hPa 0,0 l/m 2,5 km/h (1 Bft) S-SW 208 0 min 0,000 mm 0,0 UV-I 0 W/m 0,4 C 1,1 C 4,8 km/h (1 Bft) 95,12 %
24.01.2016 18:50 1,2 C 95 % 1033,8 hPa 0,0 l/m 2,5 km/h (1 Bft) S-SW 207 0 min 0,000 mm 0,0 UV-I 0 W/m 0,5 C 1,2 C 4,8 km/h (1 Bft) 96,52 %
24.01.2016 18:55 1,3 C 95 % 1033,6 hPa 0,0 l/m 4,2 km/h (1 Bft) S-SW 194 0 min 0,000 mm 0,0 UV-I 0 W/m 0,6 C 1,3 C 8,0 km/h (2 Bft) 97,32 %
24.01.2016 19:00 1,3 C 95 % 1033,7 hPa 0,0 l/m 4,9 km/h (1 Bft) S-SW 196 0 min 0,000 mm 0,0 UV-I 0 W/m 0,6 C 1,3 C 8,0 km/h (2 Bft) 96,83 %
24.01.2016 19:05 1,3 C 95 % 1033,6 hPa 0,0 l/m 3,6 km/h (1 Bft) S 182 0 min 0,000 mm 0,0 UV-I 0 W/m 0,6 C 1,3 C 6,4 km/h (2 Bft) 98,21 %
24.01.2016 19:10 1,4 C 95 % 1033,7 hPa 0,0 l/m 1,7 km/h (1 Bft) S 182 0 min 0,000 mm 0,0 UV-I 0 W/m 0,7 C 1,4 C 4,8 km/h (1 Bft) 99,17 %
24.01.2016 19:15 1,4 C 95 % 1033,8 hPa 0,0 l/m 0,6 km/h (0 Bft) S 182 0 min 0,000 mm 0,0 UV-I 0 W/m 0,7 C 1,4 C 3,2 km/h (1 Bft) 100,00 %
24.01.2016 19:20 1,4 C 95 % 1033,7 hPa 0,0 l/m 0,8 km/h (0 Bft) S 182 0 min 0,000 mm 0,0 UV-I 0 W/m 0,7 C 1,4 C 3,2 km/h (1 Bft) 99,19 %
24.01.2016 19:25 1,5 C 95 % 1033,8 hPa 0,0 l/m 2,8 km/h (1 Bft) S-SW 206 0 min 0,000 mm 0,0 UV-I 0 W/m 0,8 C 1,5 C 6,4 km/h (2 Bft) 100,00 %
24.01.2016 19:30 1,5 C 95 % 1033,7 hPa 0,0 l/m 3,7 km/h (1 Bft) S-SW 207 0 min 0,000 mm 0,0 UV-I 0 W/m 0,8 C 1,5 C 6,4 km/h (2 Bft) 100,00 %
24.01.2016 19:35 1,4 C 95 % 1033,7 hPa 0,0 l/m 4,1 km/h (1 Bft) S 176 0 min 0,000 mm 0,0 UV-I 0 W/m 0,7 C 1,4 C 6,4 km/h (2 Bft) 100,00 %
24.01.2016 19:40 1,3 C 95 % 1033,7 hPa 0,0 l/m 5,7 km/h (1 Bft) S-SW 195 0 min 0,000 mm 0,0 UV-I 0 W/m 0,6 C 1,3 C 8,0 km/h (2 Bft) 98,29 %
24.01.2016 19:45 1,3 C 95 % 1033,6 hPa 0,0 l/m 4,5 km/h (1 Bft) S-SW 203 0 min 0,000 mm 0,0 UV-I 0 W/m 0,6 C 1,3 C 8,0 km/h (2 Bft) 100,00 %
24.01.2016 19:50 1,3 C 95 % 1033,6 hPa 0,0 l/m 3,2 km/h (1 Bft) S 180 0 min 0,000 mm 0,0 UV-I 0 W/m 0,6 C 1,3 C 6,4 km/h (2 Bft) 99,13 %
24.01.2016 19:55 1,3 C 95 % 1033,7 hPa 0,0 l/m 4,0 km/h (1 Bft) SW 227 0 min 0,000 mm 0,0 UV-I 0 W/m 0,6 C 1,3 C 8,0 km/h (2 Bft) 99,19 %
24.01.2016 20:00 1,2 C 95 % 1033,6 hPa 0,0 l/m 3,9 km/h (1 Bft) S-SW 193 0 min 0,000 mm 0,0 UV-I 0 W/m 0,5 C 1,2 C 6,4 km/h (2 Bft) 99,15 %
24.01.2016 20:05 1,3 C 95 % 1033,6 hPa 0,0 l/m 3,5 km/h (1 Bft) SW 227 0 min 0,000 mm 0,0 UV-I 0 W/m 0,6 C 1,3 C 4,8 km/h (1 Bft) 100,00 %
24.01.2016 20:10 1,3 C 95 % 1033,7 hPa 0,0 l/m 3,0 km/h (1 Bft) SW 227 0 min 0,000 mm 0,0 UV-I 0 W/m 0,6 C 1,3 C 4,8 km/h (1 Bft) 100,00 %
24.01.2016 20:15 1,2 C 95 % 1033,7 hPa 0,0 l/m 2,9 km/h (1 Bft) W-SW 237 0 min 0,000 mm 0,0 UV-I 0 W/m 0,5 C 1,2 C 6,4 km/h (2 Bft) 99,11 %
24.01.2016 20:20 1,2 C 95 % 1033,6 hPa 0,0 l/m 1,8 km/h (1 Bft) W-SW 237 0 min 0,000 mm 0,0 UV-I 0 W/m 0,5 C 1,2 C 3,2 km/h (1 Bft) 98,29 %
24.01.2016 20:25 1,2 C 96 % 1033,5 hPa 0,0 l/m 2,4 km/h (1 Bft) SW 236 0 min 0,000 mm 0,0 UV-I 0 W/m 0,6 C 1,2 C 4,8 km/h (1 Bft) 99,15 %
24.01.2016 20:30 1,2 C 96 % 1033,6 hPa 0,0 l/m 3,0 km/h (1 Bft) SW 236 0 min 0,000 mm 0,0 UV-I 0 W/m 0,6 C 1,2 C 4,8 km/h (1 Bft) 100,00 %
24.01.2016 20:35 1,3 C 96 % 1033,4 hPa 0,0 l/m 3,3 km/h (1 Bft) SW 232 0 min 0,000 mm 0,0 UV-I 0 W/m 0,7 C 1,3 C 6,4 km/h (2 Bft) 97,22 %
24.01.2016 20:40 1,3 C 96 % 1033,4 hPa 0,0 l/m 3,6 km/h (1 Bft) SW 229 0 min 0,000 mm 0,0 UV-I 0 W/m 0,7 C 1,3 C 6,4 km/h (2 Bft) 96,77 %
24.01.2016 20:45 1,3 C 96 % 1033,4 hPa 0,0 l/m 4,2 km/h (1 Bft) SW 228 0 min 0,000 mm 0,0 UV-I 0 W/m 0,7 C 1,3 C 6,4 km/h (2 Bft) 95,83 %
24.01.2016 20:50 1,3 C 96 % 1033,4 hPa 0,0 l/m 3,9 km/h (1 Bft) SW 229 0 min 0,000 mm 0,0 UV-I 0 W/m 0,7 C 1,3 C 8,0 km/h (2 Bft) 96,52 %
24.01.2016 20:55 1,4 C 95 % 1033,3 hPa 0,0 l/m 3,7 km/h (1 Bft) S-SW 210 0 min 0,000 mm 0,0 UV-I 0 W/m 0,7 C 1,4 C 6,4 km/h (2 Bft) 97,32 %
24.01.2016 21:00 1,4 C 95 % 1033,2 hPa 0,0 l/m 3,1 km/h (1 Bft) S-SW 208 0 min 0,000 mm 0,0 UV-I 0 W/m 0,7 C 1,4 C 6,4 km/h (2 Bft) 97,50 %
24.01.2016 21:05 1,4 C 95 % 1033,2 hPa 0,0 l/m 1,9 km/h (1 Bft) S-SW 209 0 min 0,000 mm 0,0 UV-I 0 W/m 0,7 C 1,4 C 6,4 km/h (2 Bft) 96,43 %
24.01.2016 21:10 1,5 C 95 % 1033,3 hPa 0,0 l/m 3,6 km/h (1 Bft) W-SW 247 0 min 0,000 mm 0,0 UV-I 0 W/m 0,8 C 1,5 C 4,8 km/h (1 Bft) 98,35 %
24.01.2016 21:15 1,5 C 95 % 1033,2 hPa 0,0 l/m 1,6 km/h (1 Bft) W-SW 247 0 min 0,000 mm 0,0 UV-I 0 W/m 0,8 C 1,5 C 3,2 km/h (1 Bft) 100,00 %
24.01.2016 21:20 1,4 C 95 % 1032,9 hPa 0,0 l/m 0,9 km/h (0 Bft) W-SW 247 0 min 0,000 mm 0,0 UV-I 0 W/m 0,7 C 1,4 C 3,2 km/h (1 Bft) 99,11 %
24.01.2016 21:25 1,3 C 95 % 1032,9 hPa 0,0 l/m 1,0 km/h (0 Bft) S 171 0 min 0,000 mm 0,0 UV-I 0 W/m 0,6 C 1,3 C 4,8 km/h (1 Bft) 97,56 %
24.01.2016 21:30 1,3 C 95 % 1032,9 hPa 0,0 l/m 4,4 km/h (1 Bft) O 98 0 min 0,000 mm 0,0 UV-I 0 W/m 0,6 C 1,3 C 6,4 km/h (2 Bft) 100,00 %
24.01.2016 21:35 1,2 C 95 % 1032,8 hPa 0,0 l/m 4,6 km/h (1 Bft) SO 126 0 min 0,000 mm 0,0 UV-I 0 W/m 0,5 C 1,2 C 6,4 km/h (2 Bft) 100,00 %
24.01.2016 21:40 1,3 C 96 % 1033,1 hPa 0,0 l/m 3,1 km/h (1 Bft) SW 232 0 min 0,000 mm 0,0 UV-I 0 W/m 0,7 C 1,3 C 6,4 km/h (2 Bft) 98,44 %
24.01.2016 21:45 1,4 C 95 % 1033,1 hPa 0,0 l/m 1,5 km/h (1 Bft) SW 232 0 min 0,000 mm 0,0 UV-I 0 W/m 0,7 C 1,4 C 3,2 km/h (1 Bft) 100,00 %
24.01.2016 21:50 1,4 C 95 % 1033,2 hPa 0,0 l/m 2,9 km/h (1 Bft) SW 232 0 min 0,000 mm 0,0 UV-I 0 W/m 0,7 C 1,4 C 4,8 km/h (1 Bft) 99,13 %
24.01.2016 21:55 1,3 C 95 % 1033,1 hPa 0,0 l/m 2,2 km/h (1 Bft) S-SW 198 0 min 0,000 mm 0,0 UV-I 0 W/m 0,6 C 1,3 C 4,8 km/h (1 Bft) 99,19 %
24.01.2016 22:00 1,3 C 95 % 1033,0 hPa 0,0 l/m 0,7 km/h (0 Bft) S-SW 198 0 min 0,000 mm 0,0 UV-I 0 W/m 0,6 C 1,3 C 3,2 km/h (1 Bft) 100,00 %
24.01.2016 22:05 1,3 C 96 % 1033,1 hPa 0,0 l/m 0,7 km/h (0 Bft) S-SW 197 0 min 0,000 mm 0,0 UV-I 0 W/m 0,7 C 1,3 C 3,2 km/h (1 Bft) 100,00 %
24.01.2016 22:10 1,3 C 96 % 1033,0 hPa 0,0 l/m 0,9 km/h (0 Bft) S-SW 197 0 min 0,000 mm 0,0 UV-I 0 W/m 0,7 C 1,3 C 3,2 km/h (1 Bft) 100,00 %
24.01.2016 22:15 1,3 C 96 % 1033,1 hPa 0,0 l/m 1,6 km/h (1 Bft) S-SW 197 0 min 0,000 mm 0,0 UV-I 0 W/m 0,7 C 1,3 C 4,8 km/h (1 Bft) 100,00 %
24.01.2016 22:20 1,3 C 96 % 1033,0 hPa 0,0 l/m 3,1 km/h (1 Bft) S-SW 207 0 min 0,000 mm 0,0 UV-I 0 W/m 0,7 C 1,3 C 6,4 km/h (2 Bft) 99,15 %
24.01.2016 22:25 1,3 C 95 % 1033,0 hPa 0,0 l/m 4,0 km/h (1 Bft) S-SW 213 0 min 0,000 mm 0,0 UV-I 0 W/m 0,6 C 1,3 C 6,4 km/h (2 Bft) 99,17 %
24.01.2016 22:30 1,5 C 95 % 1033,1 hPa 0,0 l/m 3,7 km/h (1 Bft) S-SW 206 0 min 0,000 mm 0,0 UV-I 0 W/m 0,8 C 1,5 C 6,4 km/h (2 Bft) 99,11 %
24.01.2016 22:35 1,6 C 95 % 1033,1 hPa 0,0 l/m 2,9 km/h (1 Bft) S-SW 206 0 min 0,000 mm 0,0 UV-I 0 W/m 0,9 C 1,6 C 4,8 km/h (1 Bft) 100,00 %
24.01.2016 22:40 1,6 C 95 % 1033,0 hPa 0,0 l/m 3,5 km/h (1 Bft) S-SW 198 0 min 0,000 mm 0,0 UV-I 0 W/m 0,9 C 1,6 C 4,8 km/h (1 Bft) 99,19 %
24.01.2016 22:45 1,6 C 95 % 1033,1 hPa 0,0 l/m 3,3 km/h (1 Bft) SW 221 0 min 0,000 mm 0,0 UV-I 0 W/m 0,9 C 1,6 C 6,4 km/h (2 Bft) 97,44 %
24.01.2016 22:50 1,7 C 95 % 1033,0 hPa 0,0 l/m 3,4 km/h (1 Bft) S 190 0 min 0,000 mm 0,0 UV-I 0 W/m 1,0 C 1,7 C 6,4 km/h (2 Bft) 96,52 %
24.01.2016 22:55 1,7 C 94 % 1032,9 hPa 0,0 l/m 1,8 km/h (1 Bft) S 187 0 min 0,000 mm 0,0 UV-I 0 W/m 0,8 C 1,7 C 4,8 km/h (1 Bft) 96,43 %
24.01.2016 23:00 1,6 C 95 % 1032,8 hPa 0,0 l/m 1,1 km/h (1 Bft) S 187 0 min 0,000 mm 0,0 UV-I 0 W/m 0,9 C 1,6 C 3,2 km/h (1 Bft) 96,83 %
24.01.2016 23:05 1,6 C 95 % 1032,8 hPa 0,0 l/m 2,0 km/h (1 Bft) S-SO 150 0 min 0,000 mm 0,0 UV-I 0 W/m 0,9 C 1,6 C 4,8 km/h (1 Bft) 97,39 %
24.01.2016 23:10 1,6 C 95 % 1032,7 hPa 0,0 l/m 1,8 km/h (1 Bft) S-SO 155 0 min 0,000 mm 0,0 UV-I 0 W/m 0,9 C 1,6 C 4,8 km/h (1 Bft) 98,26 %
24.01.2016 23:15 1,7 C 95 % 1032,7 hPa 0,0 l/m 2,5 km/h (1 Bft) S 191 0 min 0,000 mm 0,0 UV-I 0 W/m 1,0 C 1,7 C 4,8 km/h (1 Bft) 96,49 %
24.01.2016 23:20 1,6 C 95 % 1032,9 hPa 0,0 l/m 3,1 km/h (1 Bft) S 191 0 min 0,000 mm 0,0 UV-I 0 W/m 0,9 C 1,6 C 4,8 km/h (1 Bft) 99,15 %
24.01.2016 23:25 1,4 C 95 % 1032,9 hPa 0,0 l/m 3,8 km/h (1 Bft) S-SW 207 0 min 0,000 mm 0,0 UV-I 0 W/m 0,7 C 1,4 C 6,4 km/h (2 Bft) 99,19 %
24.01.2016 23:30 1,3 C 95 % 1032,8 hPa 0,0 l/m 2,1 km/h (1 Bft) S 171 0 min 0,000 mm 0,0 UV-I 0 W/m 0,6 C 1,3 C 6,4 km/h (2 Bft) 99,13 %
24.01.2016 23:35 1,4 C 95 % 1032,6 hPa 0,0 l/m 1,9 km/h (1 Bft) S 169 0 min 0,000 mm 0,0 UV-I 0 W/m 0,7 C 1,4 C 3,2 km/h (1 Bft) 100,00 %
24.01.2016 23:40 1,4 C 95 % 1032,6 hPa 0,0 l/m 1,6 km/h (1 Bft) S-SO 162 0 min 0,000 mm 0,0 UV-I 0 W/m 0,7 C 1,4 C 6,4 km/h (2 Bft) 100,00 %
24.01.2016 23:45 1,5 C 95 % 1032,4 hPa 0,0 l/m 1,2 km/h (1 Bft) S-SO 162 0 min 0,000 mm 0,0 UV-I 0 W/m 0,8 C 1,5 C 3,2 km/h (1 Bft) 98,43 %
24.01.2016 23:50 1,6 C 95 % 1032,5 hPa 0,0 l/m 0,5 km/h (0 Bft) S-SO 162 0 min 0,000 mm 0,0 UV-I 0 W/m 0,9 C 1,6 C 3,2 km/h (1 Bft) 99,08 %
24.01.2016 23:55 1,7 C 95 % 1032,3 hPa 0,0 l/m 1,5 km/h (1 Bft) S-SO 162 0 min 0,000 mm 0,0 UV-I 0 W/m 1,0 C 1,7 C 3,2 km/h (1 Bft) 100,00 %
_ Min-Zeit 09:20 10:45 23:55 - 11:50 - - - - - - 09:20 00:35 04:30 12:05
Minimum _ -0,1 C 89 % 1032,3 hPa - 0,0 km/h (0 Bft) - - - - - - -0,7 C -2,3 C 1,6 km/h (1 Bft) 94,59 %
_ Max-Zeit 14:00 09:25 00:05 00:10 00:35 - - 09:35 11:00 10:30 09:45 01:40 14:00 00:35 00:30
Maximum _ 3,3 C 97 % 1037,5 hPa 0,2 l/m 12,5 km/h
SW (3 Bft)
- - 5 min 0,076 mm 0,6 UV-I 295 W/m 1,9 C 3,3 C 20,9 km/h
SW (4 Bft)
100,00 %
Durchschnitt _ 2,0 C 94 % 1035,0 hPa #2,2 l/m 3,5 km/h (1 Bft) SW - #1:25 h #0,381 mm 0,5 UV-I 107 W/m 1,1 C 1,7 C 6,7 km/h (2 Bft) 98,59 %